Погода в Сочи

Погода в Сочи : погода сейчас, прогноз погоды и архив. Всё, что Вы хотите узнать о погоде в Сочи!

Поиск расширенной информации на нашем сайте:

Другие новости

Новости СМИ2

Главная страница сайта

Новости сайта

02.10.2013

Напоминаем, что на нашем новом сайте вы можете получить высокодетализированные прогнозы погоды по пунктам России, СНГ и мира (включающие важные для авиации метеовеличины, такие как направление и скорость ветра, видимость, явления погоды, количество и форма облачности, нижняя и верхняя граница облачности), а также ознакомиться с разнообразными материалами по авиационной метеорологии и подборкой полезных ссылок на эту тему.

Сайт Метеоцентр.Азия посвящён разработке технологий оптимизации авиаметеорологического обслуживания, включая проектирование и перспективное создание нескольких автоматизированных авиаметеорологических систем:
- система выпуска высокодетальных прогностических карт явлений погоды для нижнего воздушного пространства по России и ближнему зарубежью;
- система верификации прогнозов TAF (выпускаемых синоптиками официальных АМСГ РФ и ближнего зарубежья) и AUTOTAF (выпускаемых сайтом Метеоцентр.Азия) - выявление ошибок, онлайн-сопоставление с фактической погодой METAR, автоматическое внесение коррективов в прогнозы при резком отклонении фактической погоды от прогноза, подсчёт оправдываемости прогнозов по элементам и в целом;
- система обработки, анализа и отображения авиаметеорологической информации для применения провайдерами метеорологической информации.


Погода в Сочи - сегодня

Время (UTC), дата Ветер
(°,м/с) 
Видим.   Явления Облачность Т
(°С)
Тd
(°С)
f(%) Тe
(°С)
Pmin
(гПа)
dP
(гПа)
Po
(мм)
O2
(г/м3)
Тmin Tmax R s Состояние
почвы
06 21.03.17 тихо ()   20000 м  слаб. ливневой дождь  9/8 900 м кучево-дожд., средняя 
[Cb cap|Ac trans]
+5.2 +4.3 94 +5  1017.1  0.8  761  300           
09 21.03.17 010 (С) 20000 м  {ливн. осадки}  9/3 600 м кучево-дожд., средняя 
[Cb cap|Ac trans]
+8.6 +2.5 65 +9  1017.5  0.5  762  297           
12 21.03.17 230 (ЮЗ) 20000 м  {ливн. осадки}  9/5 600 м кучево-дожд., средняя 
[Cb cap|Ac trans]
+9.4 +4 69 +8  1017.8  0.3  762  296           
15 21.03.17 350 (С) 20000 м    8/6 600 м кучево-дожд., средняя 
[Cb cap|Ac trans]
+7.7 +1.9 67 +8  1018  0.2  762  298      0.4     
18 21.03.17 050 (СВ) 3{10}  4000 м    6/0 средняя 
[Ac trans]
+3.8 +2.3 90 +3  1018.7  0.6  763  303           
21 21.03.17 тихо ()   4000 м    9/0 средняя 
[Ac trans]
+4.1 +2.3 88 +4  1018.9  0.2  763  302           
00 22.03.17 тихо ()   4000 м    3/1 1000 м кучево-дожд., средняя 
[Cb cap|Ac trans]
+2.2 +0.6 89 +2  1018.8  -0.1  763  305           
03 22.03.17 070 (В) 4000 м    ясно 
+1.2 +0.1 92 +2  1019.3  0.5  763  306  +0.6         
06 22.03.17 тихо ()   20000 м    ясно 
+6.7 +2.1 72 +7  1020.6  1.3  764  300  +0.1         
09 22.03.17 250 (З) 20000 м    10/3 1000 м верхняя 
[Cu hum|Ci fib]
+8.4 +3 69 +7  1020.7  0.2  764  298           
12 22.03.17 280 (З) 10 км    10/5 700 м средняя, верхняя 
[Cu hum|Ac trans|Ci fib]
+9.2 +4 70 +8  1021.3  0.6  765  297           
15 22.03.17 280 (З) 10 км    4/3 600 м средняя 
[Cu hum|Ac trans]
+7.9 +5 82 +7  1020.9  -0.4  764  299    +10.3       
18 22.03.17 350 (С) 4000 м    10/10 600 м 
[Sc]
+7.2 +4.6 84 +8  1021.9  0.9  765  300           
21 22.03.17 070 (В) 4000 м    10/10 720 м 
[Sc]
+6.7 +4.6 86 +7  1022.3  0.4  765  300           
00 23.03.17 080 (В) 4000 м  слаб. ливневой дождь  10/10 420 м кучево-дожд. 
[Cb cap]
+6 +5.8 99 +6  1022.2  -0.1  765  301           
03 23.03.17 070 (В) 4000 м  в посл. час ливневой дождь  10/10 420 м кучево-дожд. 
[Cb cap]
+6.1 +5 93 +6  1022.2  765  301  +5.8       
06 23.03.17 060 (СВ) 10 км  {ливн. осадки}  10/10 800 м 
[Sc]
+7.1 +5.1 87 +7  1023.2  766  300           
09 23.03.17 140 (ЮВ) 10 км    10/10 1020 м 
[Sc]
+9 +4.5 73 +8  1023.4  0.3  766  298           
12 23.03.17 180 (Ю) 10 км    10/10 660 м 
[Sc]
+8.6 +5.5 81 +9  1023.5  0.1  766  298           
15 23.03.17 170 (Ю) 10 км    10/10 1000 м 
[Sc]
+8.1 +5.1 81 +7  1024  0.5  767  299    +9.9       
18 23.03.17 110 (В) 4000 м    6/6 1000 м 
[Sc]
+7.7 +5.3 85 +9  1025.2  1.1  767  300           
21 23.03.17 070 (В) 4000 м    ясно 
+4.4 +3.4 93 +4  1025.8  0.6  768  304           
00 24.03.17 040 (СВ) 4000 м    ясно 
+3.2 +2.2 93 +3  1026  0.2  768  306           
03 24.03.17 080 (В) 20000 м    ясно 1500 м 
+3 -0.1 80 +2  1026.2  0.2  768  306  +1.7         
06 24.03.17 тихо ()   20000 м    ясно 
+8.7 +4 72 +9  1026.3  0.2  768  299           
Время (UTC), дата Ветер
(°,м/с) 
Видим.   Явления Облачность Т
(°С)
Тd
(°С)
f(%) Тe
(°С)
Pmin
(гПа)
dP
(гПа)
Po
(мм)
O2
(г/м3)
Тmin Tmax R s Состояние
почвы

Для получения пояснительной информации подведите курсор к названию столбца.

ПОГОДА в Сочи - архив

Всё, что Вы хотите узнать о погоде в Сочи - удобно и подробно!

Выберите нужную дату (начиная с 1 января 2015* года) и нажмите кнопку "Найти".
Будут отображены архивные сводки погоды по пункту Сочи, начиная с указанной даты.


Отображать данные в формате CSV (для использования в таблицах Excel)


Внимание! Наш архив погоды предназначен исключительно для личного некоммерческого использования в познавательных целях. Если Вам необходимы официальные справки о состоянии погоды (для производственных, юридических, коммерческих и т.п. целей), обращайтесь в органы Росгидромета.

*Примечание: данная дата относится к архиву по метеостанциям СССР (Россия, СНГ, Балтия).
Архив по метеостанциям Зарубежной Европы и Азии (кроме Китая) хранится 10 дней, по другим регионам земного шара (Китай, Африка, Америка, Австралия, Океания) - 1 день.

Сочи - район местоположения метеостанции


Название, широта, долгота, высота метеостанции:
Сочи (Адлер) 43.4°ш. 39.9°д. 13 м над ур. моря [Российская Федерация]

Дополнительная информация

В oтличие oт бoльшинства пoгoдных сайтoв мы публикуем пoдрoбную метеoинфoрмацию в детальнoм прoфессиoнальнoм фoрмате.

Характеристики температуры и влажнoсти вoздуха измеряются на высoте 2 м в тени вдали oт зданий и деревьев.
Скoрoсть ветра измеряется на высoте 10 м (на урoвне рoста челoвека скoрoсть ветра ниже в 1.5-2 раза). Если метеoстанция нахoдится в гoрoде или в лесу, тo скoрoсть ветра занижена на 2-4 м/с пo сравнению с oткрытым местoм. Скoрoсть ветра над акватoриями крупных рек и oзёр, а также на вершинах хoлмoв на 2-5 м/с выше, чем в oбычных услoвиях.
Атмoсфернoе давление в разных тoчках местнoсти мoжет значительнo oтличаться oт давления на метеoстанции, в зависимoсти oт услoвий рельефа (при пoдъёме на 10 м давление пoнижается примернo на 1 мм рт.ст.).